User: anonymous   Login
Location: Unspecified
(0.0000°N, 0.0000°E)
Time: 04:31:07
(UTC+00:00)
Language:

STARLINK-5695 - Orbit

View from above orbital plane
View from above orbital plane
View from above satellite
View from above satellite

Ground track
Ground track

The orbit is defined by the following mean orbital elements,

1 55485U          26145.39504752 +.00000000 +00000-0 +23771-4 0 00007
2 55485  43.0051 266.7737 0002115 275.5016  84.5594 15.27578921    07
Epoch (UTC): 25 May 2026 09:28:52
Eccentricity: 0.0002115
inclination: 43.0051°
perigee height: 482 km
apogee height: 485 km
right ascension of ascending node: 266.7737°
argument of perigee: 275.5016°
revolutions per day: 15.27578921
mean anomaly at epoch: 84.5594°

The dashed part of the orbit path shows where the satellite is in the earth's shadow,  

DLR